アトラス彗星

C/2023 C2 ( ATLAS )

English version
Home page
Updated on February 7, 2025

---------------------------------------------------------------------

・ プロフィール

発見日 2023年2月1日
発見光度 19.1等
発見者 Asteroid Terrestrial-Impact Last Alert System (ATLAS) search program

・ 写真集

・ 軌道要素

Epoch 2024 Oct. 17.0 TT = JDT 2460600.5
T 2024 Nov. 16.81360 TT                                 Rudenko
q   2.3685075            (2000.0)            P               Q
z  +0.0003376      Peri.  357.45737     +0.48931098     +0.59226025
 +/-0.0000010      Node   301.00438     -0.78638751     -0.01772256
e   0.9992004      Incl.   48.31947     -0.37705364     +0.80555180
From 614 observations 2023 Feb. 1-2024 Nov. 13, mean residual 0".5.

・ 星図

・ 光度変化

        m1 = 8.0 + 5 logΔ + 9.0 log r(t + 30)

---------------------------------------------------------------------

軌道要素はM.P.E.C. 2024-V192に掲載されたものです。
星図はステラナビゲータ Ver.11 (アストロアーツ) で作成したものです。
光度グラフはComet for Windowsで作成したものです。

---------------------------------------------------------------------

Copyright(C) Seiichi Yoshida (comet@aerith.net). All rights reserved.